QPF
0.00 0.00 0.00 0.00 0.00 0.00 0.00 0.00 0.00 0.00 0.00 0.00 0.00 0.00 0.00 0.00 0.00 0.00 0.00 0.00 0.00 0.00 0.00 0.00 0.00 0.00 0.00 0.00 0.00 0.00 0.00 0.00 0.00 0.00 0.00 0.00 0.00 0.01 0.01 0.01 0.01 0.02 0.02 0.02
0.00 0.00 0.00 0.00 0.00 0.00 0.00 0.00 0.00 0.00 0.00 0.00 0.00 0.00 0.00 0.00 0.00 0.00 0.00 0.00 0.00 0.00 0.00 0.00 0.00 0.00 0.00 0.00 0.00 0.00 0.00 0.00 0.00 0.00 0.00 0.01 0.01 0.01 0.02 0.03 0.04 0.04 0.05 0.05
0.00 0.00 0.00 0.00 0.00 0.00 0.00 0.00 0.00 0.00 0.00 0.00 0.00 0.00 0.00 0.00 0.00 0.00 0.00 0.00 0.00 0.00 0.00 0.00 0.00 0.00 0.00 0.00 0.00 0.00 0.00 0.00 0.01 0.01 0.01 0.01 0.02 0.02 0.03 0.04 0.05 0.06 0.06 0.07
0.00 0.00 0.00 0.00 0.00 0.00 0.00 0.00 0.00 0.00 0.00 0.00 0.00 0.00 0.00 0.00 0.00 0.00 0.00 0.00 0.00 0.00 0.00 0.00 0.00 0.00 0.00 0.00 0.00 0.00 0.00 0.01 0.01 0.01 0.02 0.02 0.03 0.04 0.04 0.06 0.06 0.07 0.08 0.08
0.00 0.00 0.00 0.00 0.00 0.00 0.00 0.00 0.00 0.00 0.00 0.00 0.00 0.00 0.00 0.00 0.00 0.00 0.00 0.00 0.00 0.00 0.00 0.00 0.00 0.00 0.00 0.00 0.00 0.00 0.00 0.01 0.01 0.02 0.02 0.03 0.04 0.04 0.06 0.06 0.06 0.07 0.08 0.10
0.00 0.00 0.00 0.00 0.00 0.00 0.00 0.00 0.00 0.00 0.00 0.00 0.00 0.00 0.00 0.00 0.00 0.00 0.00 0.00 0.00 0.00 0.00 0.00 0.00 0.00 0.00 0.00 0.00 0.00 0.00 0.01 0.01 0.02 0.03 0.04 0.04 0.05 0.06 0.07 0.07 0.07 0.08 0.10
0.00 0.00 0.00 0.00 0.00 0.00 0.00 0.00 0.00 0.00 0.00 0.00 0.00 0.00 0.00 0.00 0.00 0.00 0.00 0.00 0.00 0.00 0.00 0.00 0.00 0.00 0.00 0.00 0.00 0.00 0.00 0.01 0.02 0.03 0.04 0.04 0.05 0.06 0.07 0.07 0.08 0.07 0.08 0.10
0.00 0.00 0.00 0.00 0.00 0.00 0.00 0.00 0.00 0.00 0.00 0.00 0.00 0.00 0.00 0.00 0.00 0.00 0.00 0.00 0.00 0.00 0.00 0.00 0.00 0.00 0.00 0.00 0.00 0.00 0.01 0.01 0.02 0.03 0.03 0.04 0.06 0.06 0.06 0.07 0.07 0.07 0.07 0.08
0.00 0.00 0.00 0.00 0.00 0.00 0.00 0.00 0.00 0.00 0.00 0.00 0.00 0.00 0.00 0.00 0.00 0.00 0.00 0.00 0.00 0.00 0.00 0.00 0.00 0.00 0.00 0.00 0.00 0.01 0.01 0.01 0.02 0.02 0.03 0.04 0.05 0.06 0.07 0.08 0.10 0.09 0.07 0.07
0.00 0.00 0.00 0.00 0.00 0.00 0.00 0.00 0.00 0.00 0.00 0.00 0.00 0.00 0.00 0.00 0.00 0.00 0.00 0.00 0.00 0.00 0.00 0.00 0.00 0.00 0.00 0.00 0.01 0.01 0.01 0.01 0.02 0.02 0.02 0.03 0.05 0.06 0.07 0.09 0.10 0.09 0.08 0.08
0.00 0.00 0.00 0.00 0.00 0.00 0.00 0.00 0.00 0.00 0.00 0.00 0.00 0.00 0.00 0.00 0.00 0.00 0.00 0.00 0.00 0.00 0.00 0.00 0.00 0.00 0.01 0.01 0.01 0.02 0.02 0.01 0.02 0.02 0.02 0.02 0.03 0.04 0.05 0.07 0.06 0.05 0.06 0.08
0.00 0.00 0.00 0.00 0.00 0.00 0.00 0.00 0.00 0.00 0.00 0.00 0.00 0.00 0.00 0.00 0.00 0.00 0.00 0.00 0.00 0.00 0.00 0.00 0.00 0.01 0.01 0.01 0.02 0.03 0.03 0.02 0.02 0.02 0.02 0.02 0.02 0.03 0.04 0.04 0.03 0.02 0.02 0.02
0.00 0.00 0.00 0.00 0.00 0.00 0.00 0.00 0.00 0.00 0.00 0.00 0.00 0.00 0.00 0.00 0.00 0.00 0.00 0.00 0.00 0.00 0.00 0.00 0.00 0.01 0.01 0.02 0.03 0.04 0.04 0.04 0.02 0.02 0.02 0.02 0.02 0.03 0.05 0.06 0.05 0.02 0.01 0.01
0.00 0.00 0.00 0.00 0.00 0.00 0.00 0.00 0.00 0.00 0.00 0.00 0.00 0.00 0.00 0.00 0.00 0.00 0.00 0.00 0.00 0.00 0.00 0.00 0.00 0.01 0.01 0.02 0.03 0.04 0.05 0.05 0.03 0.03 0.03 0.03 0.03 0.03 0.04 0.06 0.07 0.05 0.02 0.01
0.00 0.00 0.00 0.00 0.00 0.00 0.00 0.00 0.00 0.00 0.00 0.00 0.00 0.00 0.00 0.00 0.00 0.00 0.00 0.00 0.00 0.00 0.00 0.00 0.00 0.01 0.01 0.02 0.04 0.05 0.06 0.05 0.03 0.03 0.03 0.03 0.03 0.04 0.04 0.04 0.06 0.04 0.03 0.02
0.00 0.00 0.00 0.00 0.00 0.00 0.00 0.00 0.00 0.00 0.00 0.00 0.00 0.00 0.00 0.00 0.00 0.00 0.00 0.00 0.00 0.00 0.00 0.00 0.00 0.00 0.01 0.02 0.03 0.04 0.06 0.07 0.05 0.03 0.02 0.03 0.03 0.04 0.04 0.06 0.06 0.04 0.03 0.03
0.00 0.00 0.00 0.00 0.00 0.00 0.00 0.00 0.00 0.00 0.00 0.00 0.00 0.00 0.00 0.00 0.00 0.00 0.00 0.00 0.00 0.00 0.00 0.00 0.00 0.00 0.01 0.01 0.02 0.04 0.05 0.06 0.06 0.03 0.02 0.03 0.04 0.04 0.05 0.06 0.06 0.04 0.02 0.02
0.00 0.00 0.00 0.00 0.00 0.00 0.00 0.00 0.00 0.00 0.00 0.00 0.00 0.00 0.00 0.00 0.00 0.00 0.00 0.00 0.00 0.00 0.00 0.00 0.00 0.00 0.00 0.01 0.01 0.03 0.05 0.06 0.05 0.03 0.02 0.02 0.03 0.04 0.04 0.04 0.04 0.03 0.02 0.01
0.00 0.00 0.00 0.00 0.00 0.00 0.00 0.00 0.00 0.00 0.00 0.00 0.00 0.00 0.00 0.00 0.00 0.00 0.00 0.00 0.00 0.00 0.00 0.00 0.00 0.00 0.00 0.00 0.01 0.03 0.05 0.05 0.04 0.03 0.02 0.02 0.03 0.05 0.03 0.03 0.03 0.03 0.03 0.03
0.00 0.00 0.00 0.00 0.00 0.00 0.00 0.00 0.00 0.00 0.00 0.00 0.00 0.00 0.00 0.00 0.00 0.00 0.00 0.00 0.00 0.00 0.00 0.00 0.00 0.00 0.00 0.00 0.01 0.02 0.04 0.05 0.03 0.03 0.02 0.02 0.03 0.03 0.03 0.02 0.02 0.03 0.04 0.04
0.00 0.00 0.00 0.00 0.00 0.00 0.00 0.00 0.00 0.00 0.00 0.00 0.00 0.00 0.00 0.00 0.00 0.00 0.00 0.00 0.00 0.00 0.00 0.00 0.00 0.00 0.00 0.00 0.01 0.02 0.02 0.03 0.03 0.03 0.02 0.02 0.02 0.02 0.02 0.03 0.03 0.03 0.04 0.05
0.00 0.00 0.00 0.00 0.00 0.00 0.00 0.00 0.00 0.00 0.00 0.00 0.00 0.00 0.00 0.00 0.00 0.00 0.00 0.00 0.00 0.00 0.00 0.00 0.00 0.00 0.00 0.01 0.01 0.01 0.02 0.02 0.02 0.03 0.02 0.02 0.02 0.02 0.02 0.02 0.02 0.03 0.04 0.05
0.00 0.00 0.00 0.00 0.00 0.00 0.00 0.00 0.00 0.00 0.00 0.00 0.00 0.00 0.00 0.00 0.00 0.00 0.00 0.00 0.00 0.00 0.00 0.00 0.00 0.00 0.01 0.00 0.01 0.01 0.01 0.01 0.01 0.01 0.02 0.02 0.01 0.01 0.01 0.01 0.01 0.01 0.02 0.03
0.00 0.00 0.00 0.00 0.00 0.01 0.00 0.00 0.00 0.00 0.00 0.00 0.00 0.00 0.00 0.00 0.00 0.00 0.00 0.00 0.00 0.00 0.00 0.00 0.00 0.01 0.01 0.00 0.00 0.00 0.00 0.00 0.00 0.00 0.01 0.01 0.01 0.01 0.01 0.01 0.01 0.01 0.01 0.02
0.00 0.01 0.01 0.01 0.01 0.01 0.01 0.01 0.01 0.01 0.01 0.01 0.00 0.00 0.00 0.00 0.00 0.00 0.00 0.00 0.00 0.00 0.00 0.00 0.01 0.01 0.01 0.00 0.00 0.00 0.00 0.00 0.01 0.00 0.00 0.00 0.01 0.01 0.01 0.01 0.01 0.01 0.01 0.01
0.00 0.00 0.01 0.01 0.01 0.02 0.02 0.03 0.03 0.03 0.03 0.02 0.01 0.00 0.00 0.00 0.00 0.00 0.00 0.00 0.00 0.00 0.00 0.00 0.00 0.00 0.00 0.00 0.00 0.00 0.00 0.01 0.01 0.00 0.00 0.00 0.00 0.00 0.00 0.00 0.01 0.01 0.01 0.00
0.00 0.00 0.01 0.02 0.02 0.03 0.04 0.04 0.04 0.04 0.04 0.02 0.01 0.01 0.00 0.00 0.00 0.00 0.00 0.00 0.00 0.00 0.00 0.00 0.00 0.00 0.00 0.00 0.00 0.01 0.01 0.01 0.01 0.00 0.00 0.00 0.00 0.00 0.00 0.00 0.00 0.00 0.01 0.01
MSLP
1014.21 1014.40 1014.59 1014.75 1014.90 1015.01 1015.08 1015.11 1015.08 1015.00 1014.89 1014.73 1014.56 1014.39 1014.22 1014.07 1013.92 1013.78 1013.64 1013.49 1013.32 1013.14 1012.93 1012.72 1012.50 1012.27 1012.03 1011.78 1011.50 1011.19 1010.84 1010.43 1009.98 1009.48 1008.96 1008.44 1007.93 1007.45 1007.02 1006.63 1006.28 1005.96 1005.67 1005.39
1014.36 1014.57 1014.75 1014.88 1014.97 1015.02 1015.02 1014.99 1014.91 1014.80 1014.67 1014.53 1014.39 1014.24 1014.11 1013.97 1013.84 1013.71 1013.57 1013.41 1013.23 1013.04 1012.84 1012.64 1012.42 1012.20 1011.97 1011.71 1011.42 1011.08 1010.68 1010.23 1009.73 1009.19 1008.64 1008.09 1007.57 1007.09 1006.65 1006.26 1005.91 1005.57 1005.25 1004.93
1014.43 1014.64 1014.79 1014.89 1014.93 1014.92 1014.87 1014.79 1014.68 1014.57 1014.45 1014.33 1014.22 1014.12 1014.02 1013.91 1013.79 1013.66 1013.51 1013.33 1013.14 1012.93 1012.72 1012.50 1012.28 1012.06 1011.81 1011.54 1011.23 1010.85 1010.42 1009.92 1009.38 1008.80 1008.22 1007.65 1007.11 1006.63 1006.20 1005.81 1005.46 1005.12 1004.78 1004.42
1014.42 1014.60 1014.71 1014.76 1014.75 1014.69 1014.60 1014.49 1014.37 1014.27 1014.17 1014.09 1014.03 1013.97 1013.91 1013.83 1013.73 1013.59 1013.42 1013.22 1013.00 1012.76 1012.52 1012.28 1012.04 1011.80 1011.54 1011.25 1010.91 1010.50 1010.03 1009.50 1008.91 1008.30 1007.68 1007.08 1006.53 1006.05 1005.62 1005.24 1004.89 1004.56 1004.22 1003.86
1014.31 1014.43 1014.48 1014.48 1014.42 1014.32 1014.20 1014.07 1013.96 1013.88 1013.82 1013.79 1013.77 1013.76 1013.74 1013.68 1013.59 1013.45 1013.26 1013.03 1012.77 1012.50 1012.22 1011.96 1011.70 1011.43 1011.16 1010.85 1010.49 1010.06 1009.56 1008.98 1008.36 1007.71 1007.05 1006.43 1005.86 1005.36 1004.93 1004.55 1004.22 1003.90 1003.58 1003.25
1014.07 1014.11 1014.10 1014.04 1013.93 1013.80 1013.66 1013.54 1013.45 1013.40 1013.38 1013.40 1013.44 1013.47 1013.48 1013.45 1013.36 1013.21 1013.00 1012.74 1012.45 1012.15 1011.85 1011.55 1011.27 1011.00 1010.71 1010.39 1010.01 1009.56 1009.04 1008.44 1007.78 1007.09 1006.41 1005.75 1005.15 1004.63 1004.18 1003.81 1003.49 1003.20 1002.92 1002.63
1013.69 1013.65 1013.57 1013.46 1013.31 1013.17 1013.03 1012.93 1012.86 1012.85 1012.88 1012.95 1013.03 1013.10 1013.14 1013.12 1013.04 1012.88 1012.66 1012.38 1012.07 1011.74 1011.42 1011.11 1010.82 1010.54 1010.25 1009.92 1009.54 1009.08 1008.54 1007.92 1007.24 1006.51 1005.79 1005.09 1004.46 1003.91 1003.45 1003.08 1002.77 1002.52 1002.29 1002.08
1013.15 1013.05 1012.92 1012.76 1012.61 1012.47 1012.35 1012.28 1012.26 1012.29 1012.37 1012.47 1012.59 1012.69 1012.75 1012.74 1012.66 1012.50 1012.27 1011.98 1011.66 1011.32 1011.00 1010.69 1010.40 1010.13 1009.84 1009.51 1009.13 1008.66 1008.11 1007.47 1006.76 1006.00 1005.24 1004.51 1003.84 1003.27 1002.80 1002.43 1002.14 1001.93 1001.77 1001.63
1012.48 1012.32 1012.16 1012.01 1011.87 1011.76 1011.68 1011.66 1011.69 1011.77 1011.89 1012.03 1012.18 1012.29 1012.36 1012.35 1012.27 1012.11 1011.87 1011.59 1011.27 1010.95 1010.63 1010.34 1010.06 1009.79 1009.51 1009.19 1008.80 1008.32 1007.75 1007.09 1006.35 1005.57 1004.77 1004.01 1003.32 1002.73 1002.25 1001.89 1001.64 1001.48 1001.39 1001.33
1011.68 1011.50 1011.35 1011.22 1011.13 1011.08 1011.07 1011.12 1011.21 1011.34 1011.50 1011.67 1011.83 1011.94 1012.01 1012.00 1011.91 1011.75 1011.52 1011.25 1010.95 1010.64 1010.35 1010.08 1009.81 1009.55 1009.27 1008.94 1008.54 1008.04 1007.45 1006.76 1005.99 1005.18 1004.36 1003.59 1002.88 1002.29 1001.82 1001.49 1001.28 1001.17 1001.14 1001.17
1010.78 1010.61 1010.50 1010.43 1010.41 1010.45 1010.54 1010.66 1010.83 1011.01 1011.21 1011.40 1011.56 1011.67 1011.72 1011.70 1011.61 1011.45 1011.23 1010.98 1010.71 1010.43 1010.17 1009.91 1009.66 1009.40 1009.11 1008.76 1008.32 1007.79 1007.15 1006.43 1005.63 1004.79 1003.96 1003.18 1002.48 1001.91 1001.47 1001.18 1001.02 1000.97 1001.00 1001.09
1009.81 1009.68 1009.63 1009.65 1009.73 1009.87 1010.06 1010.27 1010.51 1010.76 1010.99 1011.19 1011.35 1011.45 1011.49 1011.46 1011.37 1011.21 1011.01 1010.79 1010.54 1010.30 1010.06 1009.82 1009.57 1009.30 1008.98 1008.58 1008.09 1007.51 1006.82 1006.04 1005.21 1004.35 1003.51 1002.74 1002.07 1001.53 1001.15 1000.91 1000.81 1000.82 1000.91 1001.05
1008.81 1008.74 1008.76 1008.87 1009.06 1009.31 1009.59 1009.91 1010.22 1010.52 1010.78 1011.00 1011.16 1011.26 1011.29 1011.25 1011.15 1011.01 1010.84 1010.64 1010.43 1010.22 1010.00 1009.77 1009.51 1009.21 1008.84 1008.38 1007.83 1007.17 1006.41 1005.58 1004.71 1003.83 1002.99 1002.24 1001.61 1001.13 1000.81 1000.64 1000.60 1000.67 1000.81 1000.98
1007.85 1007.83 1007.92 1008.11 1008.39 1008.73 1009.11 1009.51 1009.89 1010.24 1010.53 1010.77 1010.94 1011.03 1011.06 1011.02 1010.94 1010.82 1010.67 1010.51 1010.33 1010.15 1009.95 1009.72 1009.44 1009.10 1008.67 1008.14 1007.50 1006.76 1005.93 1005.05 1004.13 1003.24 1002.41 1001.69 1001.12 1000.70 1000.44 1000.34 1000.36 1000.48 1000.65 1000.83
1006.98 1006.99 1007.13 1007.39 1007.73 1008.15 1008.60 1009.05 1009.49 1009.88 1010.21 1010.47 1010.65 1010.75 1010.79 1010.77 1010.70 1010.61 1010.49 1010.36 1010.22 1010.06 1009.88 1009.64 1009.34 1008.96 1008.47 1007.86 1007.15 1006.33 1005.43 1004.49 1003.54 1002.64 1001.82 1001.14 1000.61 1000.25 1000.05 1000.01 1000.08 1000.24 1000.43 1000.61
1006.28 1006.31 1006.47 1006.74 1007.12 1007.57 1008.05 1008.55 1009.02 1009.44 1009.80 1010.08 1010.28 1010.40 1010.46 1010.46 1010.43 1010.37 1010.29 1010.20 1010.09 1009.95 1009.78 1009.54 1009.22 1008.79 1008.25 1007.58 1006.80 1005.92 1004.96 1003.98 1003.01 1002.10 1001.30 1000.64 1000.16 999.84 999.69 999.69 999.79 999.96 1000.15 1000.31
1005.83 1005.83 1005.97 1006.23 1006.60 1007.04 1007.53 1008.04 1008.52 1008.96 1009.34 1009.64 1009.87 1010.02 1010.10 1010.14 1010.14 1010.11 1010.07 1010.01 1009.93 1009.82 1009.65 1009.41 1009.08 1008.63 1008.05 1007.34 1006.51 1005.58 1004.60 1003.59 1002.61 1001.70 1000.92 1000.29 999.83 999.54 999.41 999.42 999.53 999.68 999.85 999.98
1005.65 1005.62 1005.70 1005.91 1006.23 1006.63 1007.09 1007.57 1008.05 1008.49 1008.88 1009.20 1009.45 1009.63 1009.74 1009.81 1009.84 1009.85 1009.84 1009.81 1009.76 1009.67 1009.51 1009.27 1008.93 1008.47 1007.88 1007.16 1006.31 1005.38 1004.38 1003.38 1002.40 1001.51 1000.74 1000.13 999.67 999.39 999.26 999.25 999.33 999.45 999.57 999.65
1005.77 1005.66 1005.67 1005.79 1006.03 1006.36 1006.76 1007.20 1007.65 1008.08 1008.47 1008.80 1009.07 1009.27 1009.42 1009.51 1009.58 1009.61 1009.62 1009.62 1009.58 1009.50 1009.35 1009.13 1008.80 1008.34 1007.76 1007.05 1006.23 1005.31 1004.35 1003.37 1002.42 1001.55 1000.80 1000.19 999.73 999.42 999.26 999.20 999.22 999.28 999.34 999.37
1006.09 1005.90 1005.82 1005.84 1005.98 1006.23 1006.55 1006.92 1007.33 1007.73 1008.11 1008.45 1008.73 1008.95 1009.12 1009.24 1009.33 1009.38 1009.41 1009.41 1009.38 1009.31 1009.17 1008.96 1008.65 1008.23 1007.68 1007.01 1006.23 1005.37 1004.46 1003.53 1002.63 1001.80 1001.06 1000.45 999.97 999.63 999.40 999.28 999.22 999.20 999.18 999.15
1006.51 1006.24 1006.06 1005.98 1006.02 1006.16 1006.40 1006.71 1007.06 1007.43 1007.80 1008.13 1008.42 1008.65 1008.84 1008.98 1009.07 1009.14 1009.17 1009.17 1009.15 1009.08 1008.96 1008.76 1008.48 1008.10 1007.60 1007.00 1006.30 1005.51 1004.68 1003.82 1002.98 1002.18 1001.47 1000.86 1000.35 999.96 999.67 999.47 999.33 999.21 999.12 999.01
1006.90 1006.55 1006.27 1006.10 1006.03 1006.09 1006.24 1006.48 1006.78 1007.12 1007.46 1007.79 1008.08 1008.32 1008.52 1008.67 1008.77 1008.84 1008.88 1008.89 1008.86 1008.80 1008.69 1008.51 1008.27 1007.94 1007.51 1006.98 1006.37 1005.68 1004.93 1004.16 1003.39 1002.65 1001.96 1001.35 1000.83 1000.39 1000.03 999.75 999.51 999.31 999.13 998.96
1007.13 1006.71 1006.35 1006.08 1005.93 1005.90 1005.98 1006.16 1006.41 1006.71 1007.04 1007.36 1007.65 1007.91 1008.12 1008.28 1008.40 1008.47 1008.51 1008.52 1008.50 1008.45 1008.36 1008.21 1008.01 1007.73 1007.38 1006.94 1006.42 1005.83 1005.18 1004.50 1003.81 1003.13 1002.48 1001.87 1001.33 1000.86 1000.44 1000.08 999.77 999.49 999.24 999.01
1007.13 1006.63 1006.21 1005.87 1005.65 1005.55 1005.57 1005.69 1005.91 1006.18 1006.49 1006.81 1007.11 1007.39 1007.62 1007.80 1007.93 1008.02 1008.08 1008.10 1008.10 1008.06 1007.99 1007.88 1007.73 1007.51 1007.23 1006.87 1006.45 1005.96 1005.41 1004.82 1004.21 1003.59 1002.98 1002.39 1001.84 1001.34 1000.88 1000.46 1000.09 999.75 999.44 999.16
1006.87 1006.32 1005.84 1005.45 1005.17 1005.02 1004.99 1005.08 1005.27 1005.53 1005.83 1006.15 1006.47 1006.77 1007.02 1007.24 1007.40 1007.52 1007.61 1007.66 1007.68 1007.67 1007.63 1007.57 1007.46 1007.30 1007.09 1006.82 1006.48 1006.08 1005.62 1005.12 1004.58 1004.02 1003.45 1002.89 1002.34 1001.83 1001.34 1000.89 1000.47 1000.09 999.74 999.43
1006.42 1005.83 1005.31 1004.87 1004.56 1004.37 1004.31 1004.38 1004.55 1004.80 1005.11 1005.45 1005.79 1006.12 1006.41 1006.66 1006.87 1007.04 1007.16 1007.25 1007.31 1007.35 1007.35 1007.33 1007.27 1007.17 1007.02 1006.82 1006.56 1006.23 1005.85 1005.42 1004.95 1004.44 1003.92 1003.38 1002.85 1002.33 1001.83 1001.36 1000.92 1000.51 1000.14 999.82
1005.87 1005.25 1004.70 1004.25 1003.91 1003.71 1003.64 1003.69 1003.86 1004.11 1004.43 1004.79 1005.17 1005.53 1005.87 1006.17 1006.44 1006.66 1006.84 1006.98 1007.09 1007.17 1007.22 1007.24 1007.23 1007.18 1007.09 1006.94 1006.73 1006.47 1006.16 1005.78 1005.36 1004.90 1004.41 1003.91 1003.39 1002.88 1002.38 1001.90 1001.44 1001.03 1000.65 1000.32
Thickness
5737 5736 5732 5726 5721 5717 5712 5706 5699 5695 5693 5696 5692 5683 5676 5671 5665 5659 5653 5646 5640 5633 5627 5620 5614 5607 5602 5597 5591 5586 5581 5576 5571 5565 5558 5551 5544 5536 5529 5524 5521 5520 5523 5528
5730 5731 5727 5720 5717 5712 5707 5704 5700 5696 5695 5700 5690 5681 5674 5668 5661 5654 5647 5641 5635 5629 5622 5615 5607 5601 5594 5588 5582 5576 5570 5564 5558 5551 5544 5536 5527 5519 5512 5505 5500 5498 5500 5506
5726 5728 5720 5714 5718 5711 5707 5706 5698 5690 5692 5694 5684 5675 5668 5662 5656 5648 5642 5635 5629 5623 5616 5609 5601 5593 5586 5579 5573 5566 5560 5553 5547 5539 5531 5522 5513 5504 5496 5489 5484 5481 5483 5488
5724 5715 5697 5718 5727 5716 5705 5704 5703 5697 5695 5689 5681 5674 5668 5664 5653 5643 5636 5630 5624 5618 5612 5604 5596 5587 5578 5572 5565 5559 5553 5546 5537 5529 5520 5511 5501 5492 5484 5476 5471 5469 5470 5474
5719 5713 5715 5717 5716 5712 5702 5700 5705 5696 5690 5686 5683 5672 5672 5661 5649 5639 5632 5625 5618 5611 5605 5598 5589 5580 5572 5565 5560 5553 5547 5539 5530 5521 5512 5503 5494 5484 5476 5469 5465 5462 5462 5466
5716 5699 5695 5716 5719 5715 5702 5694 5704 5696 5687 5682 5675 5666 5665 5658 5646 5638 5628 5621 5614 5607 5600 5593 5584 5574 5566 5561 5554 5548 5541 5533 5525 5516 5507 5499 5491 5482 5474 5466 5461 5459 5459 5462
5713 5705 5716 5722 5717 5706 5690 5692 5701 5694 5685 5677 5668 5660 5658 5652 5643 5633 5625 5618 5611 5603 5596 5588 5579 5569 5561 5556 5550 5544 5536 5528 5521 5513 5506 5499 5491 5482 5474 5467 5462 5460 5459 5462
5711 5701 5707 5719 5711 5703 5702 5705 5698 5691 5684 5676 5668 5662 5655 5647 5638 5630 5622 5616 5608 5600 5593 5584 5575 5566 5558 5553 5547 5540 5532 5526 5520 5514 5506 5500 5492 5484 5477 5470 5464 5463 5462 5465
5720 5717 5722 5724 5720 5719 5712 5703 5697 5690 5684 5676 5667 5660 5653 5644 5635 5627 5620 5613 5605 5598 5589 5581 5572 5562 5554 5549 5543 5536 5530 5525 5520 5514 5507 5500 5494 5487 5480 5473 5468 5466 5466 5468
5718 5725 5726 5723 5720 5717 5710 5702 5697 5690 5681 5673 5664 5658 5649 5640 5632 5624 5617 5609 5602 5594 5585 5578 5568 5559 5551 5545 5540 5534 5528 5524 5520 5515 5510 5504 5497 5490 5483 5477 5472 5470 5469 5471
5715 5722 5723 5722 5719 5716 5710 5702 5694 5687 5679 5670 5661 5652 5644 5635 5627 5620 5613 5605 5597 5588 5580 5572 5565 5557 5550 5544 5538 5533 5528 5524 5520 5516 5512 5507 5502 5495 5488 5481 5473 5469 5470 5471
5718 5727 5720 5720 5722 5717 5707 5697 5690 5682 5675 5668 5658 5649 5640 5631 5624 5616 5609 5601 5593 5584 5576 5568 5562 5555 5549 5543 5536 5531 5527 5525 5522 5519 5515 5511 5507 5502 5494 5483 5475 5469 5466 5465
5730 5732 5728 5726 5719 5713 5704 5697 5690 5680 5670 5662 5654 5645 5636 5628 5621 5614 5606 5599 5589 5579 5571 5564 5559 5554 5548 5541 5536 5531 5527 5525 5523 5521 5518 5515 5511 5507 5502 5493 5481 5474 5471 5469
5731 5724 5719 5718 5713 5709 5702 5695 5687 5677 5668 5659 5650 5641 5633 5625 5618 5610 5603 5594 5584 5575 5567 5562 5557 5552 5546 5540 5535 5532 5530 5528 5525 5524 5522 5519 5515 5512 5506 5501 5495 5488 5479 5474
5728 5722 5718 5719 5711 5704 5697 5689 5679 5671 5664 5656 5648 5638 5630 5621 5613 5606 5599 5589 5579 5571 5565 5559 5554 5549 5543 5539 5536 5533 5532 5531 5529 5528 5526 5524 5521 5517 5512 5506 5501 5496 5491 5485
5728 5722 5714 5709 5702 5697 5690 5682 5674 5668 5661 5652 5643 5634 5626 5618 5610 5603 5595 5585 5575 5569 5563 5557 5552 5546 5541 5538 5536 5535 5534 5532 5531 5531 5531 5529 5526 5521 5517 5512 5507 5503 5499 5496
5718 5713 5708 5702 5698 5693 5687 5680 5673 5665 5658 5648 5639 5631 5622 5615 5608 5601 5591 5582 5572 5566 5562 5555 5549 5544 5541 5539 5537 5535 5535 5535 5535 5536 5535 5533 5529 5525 5521 5516 5513 5510 5507 5502
5717 5713 5710 5703 5697 5691 5683 5677 5669 5661 5651 5643 5635 5626 5618 5611 5604 5596 5587 5578 5571 5567 5561 5552 5547 5543 5542 5540 5538 5537 5536 5537 5539 5540 5538 5535 5532 5528 5524 5520 5518 5515 5513 5510
5709 5706 5703 5698 5693 5686 5679 5671 5664 5656 5647 5638 5629 5621 5614 5607 5601 5592 5583 5576 5572 5567 5559 5552 5545 5544 5543 5541 5538 5538 5539 5540 5541 5541 5540 5535 5535 5532 5528 5524 5520 5518 5517 5516
5696 5695 5694 5690 5684 5677 5670 5663 5656 5648 5640 5632 5624 5616 5610 5604 5597 5589 5582 5577 5572 5563 5554 5549 5546 5545 5543 5541 5537 5539 5540 5540 5541 5542 5542 5541 5539 5536 5531 5528 5524 5521 5519 5519
5682 5682 5679 5677 5673 5669 5664 5657 5649 5641 5634 5626 5618 5611 5605 5599 5593 5587 5582 5579 5571 5560 5552 5548 5547 5544 5540 5537 5537 5539 5539 5540 5541 5541 5542 5542 5540 5538 5534 5530 5525 5523 5521 5520
5663 5664 5664 5663 5661 5658 5655 5649 5641 5634 5627 5619 5613 5607 5601 5595 5591 5586 5581 5575 5568 5557 5552 5551 5546 5540 5536 5536 5539 5539 5539 5538 5539 5540 5541 5542 5541 5539 5537 5532 5528 5526 5524 5524
5646 5647 5646 5645 5644 5644 5643 5639 5632 5625 5619 5613 5607 5602 5598 5592 5587 5582 5579 5573 5565 5554 5551 5550 5540 5536 5534 5539 5539 5538 5538 5538 5537 5538 5540 5542 5543 5542 5540 5538 5534 5531 5529 5527
5628 5631 5630 5630 5630 5629 5628 5626 5622 5616 5612 5606 5602 5597 5591 5589 5586 5582 5575 5566 5558 5550 5553 5546 5538 5535 5536 5538 5536 5536 5536 5536 5536 5537 5539 5542 5544 5544 5544 5543 5541 5539 5536 5533
5614 5616 5618 5619 5619 5619 5619 5617 5613 5608 5603 5599 5597 5590 5586 5582 5578 5574 5568 5563 5555 5549 5551 5546 5538 5534 5536 5535 5533 5532 5532 5532 5532 5534 5537 5539 5540 5542 5544 5546 5546 5545 5543 5541
5600 5604 5609 5609 5611 5612 5615 5614 5610 5604 5598 5593 5590 5586 5582 5576 5570 5566 5563 5560 5555 5548 5547 5543 5540 5536 5534 5531 5530 5528 5528 5529 5531 5532 5533 5535 5539 5541 5543 5545 5547 5549 5548 5548
5588 5594 5598 5602 5606 5608 5608 5608 5604 5599 5594 5589 5586 5582 5576 5571 5566 5562 5558 5556 5552 5548 5543 5538 5534 5531 5528 5526 5525 5523 5523 5523 5524 5527 5529 5532 5535 5538 5541 5543 5547 5550 5551 5552